Theta_e
301 297 294 296 295 293 292 291 290 292 296 298 297 297 300 302 302 301 304 305 305 306 310 313 314 315 315 317 319 327 325 330 331 329 327 326 325 330 333 331 331 331 331 327
296 293 298 298 295 294 292 290 290 293 296 298 296 296 298 301 301 303 303 304 305 307 310 311 313 314 315 316 321 328 327 330 332 331 330 329 328 328 327 327 328 329 329 322
292 295 297 296 293 292 291 290 289 291 294 296 295 294 294 299 300 302 305 305 307 306 308 310 313 315 316 317 323 327 328 329 332 331 330 326 325 323 320 319 318 322 326 325
293 296 295 294 292 292 288 293 293 292 291 288 294 288 292 296 297 300 303 305 306 307 310 312 313 317 318 322 325 327 326 330 332 333 330 326 325 320 319 318 316 318 319 318
293 293 292 292 292 293 291 296 294 293 291 291 291 289 292 294 293 298 302 305 306 308 309 313 314 314 318 320 321 323 324 325 327 330 328 328 323 320 320 318 316 317 317 316
294 297 295 294 294 294 296 295 292 292 292 287 289 289 290 292 295 297 302 305 306 308 310 313 316 318 319 320 319 319 321 322 323 324 325 323 321 318 316 315 316 315 314 314
292 292 295 295 292 296 294 291 286 284 286 285 289 288 292 293 299 300 301 304 306 308 310 313 315 315 319 319 318 318 319 318 319 318 319 319 318 318 317 315 314 311 311 312
286 286 292 294 291 291 291 291 285 279 280 283 287 286 291 297 301 301 303 305 306 307 309 311 314 316 317 318 318 318 318 317 318 317 316 316 317 315 314 314 312 311 310 311
285 287 292 293 295 295 291 289 291 284 283 284 286 290 293 299 299 300 303 304 304 306 307 308 310 314 315 315 315 316 316 316 317 317 316 315 315 314 312 313 312 310 311 312
290 286 290 293 296 296 293 294 288 287 281 280 282 284 288 290 293 299 301 302 304 306 305 307 308 310 312 313 314 315 315 314 315 316 317 316 314 314 314 314 311 311 311 310
290 289 287 291 289 290 292 291 288 289 286 283 281 284 291 292 295 299 301 303 304 304 304 305 306 307 309 310 310 311 312 312 313 313 314 315 314 314 313 312 311 310 311 310
290 287 283 286 290 292 293 291 290 285 283 284 284 286 294 294 298 301 300 303 305 305 303 304 305 305 305 305 305 306 308 308 309 311 310 311 311 313 311 310 309 310 310 310
291 286 282 285 289 291 289 289 288 286 287 283 284 286 293 296 297 301 300 304 304 303 304 304 305 303 303 304 304 304 305 306 307 309 309 308 308 308 308 309 309 310 309 308
296 286 286 284 286 288 286 286 287 288 284 283 285 287 290 295 296 298 300 303 304 303 305 305 303 302 301 302 302 302 303 304 304 305 305 304 304 304 303 303 303 303 302 301
292 287 285 287 288 287 287 286 286 286 286 286 286 287 291 294 297 299 301 302 304 303 304 305 304 301 300 300 300 300 299 301 301 301 300 299 299 300 300 300 300 300 299 298
289 286 287 286 288 288 288 287 287 288 285 286 286 286 293 293 297 298 299 301 303 303 304 305 305 301 299 298 298 299 299 299 301 300 299 299 299 300 298 298 298 297 297 297
288 286 284 283 286 286 284 288 287 287 287 289 285 292 290 293 295 298 299 300 302 305 305 305 305 303 300 298 298 298 297 297 297 296 296 297 298 297 296 296 297 296 296 297
286 286 285 282 284 280 289 291 292 291 291 289 289 290 293 294 297 299 302 302 302 304 306 306 304 303 300 297 296 295 295 295 295 294 294 294 295 294 294 295 294 295 295 295
288 286 282 282 281 285 288 289 289 289 291 292 292 291 292 295 297 297 300 303 304 305 306 307 307 304 298 297 295 294 294 294 293 293 293 293 294 293 293 293 293 293 294 294
287 287 287 280 282 281 289 291 293 293 288 294 294 293 292 295 291 295 300 303 303 304 305 303 302 300 298 296 295 294 293 293 293 293 293 293 293 293 292 292 292 292 293 292
283 284 283 283 283 285 290 293 293 288 291 293 294 293 295 294 297 298 300 302 304 303 302 302 299 299 298 295 294 294 293 293 294 293 293 292 293 292 292 291 291 291 292 291
284 282 281 282 282 283 293 291 291 295 294 294 293 294 296 297 297 298 301 301 301 300 300 299 298 298 296 295 295 294 293 295 293 293 292 292 292 292 291 291 289 289 290 288
284 288 285 287 287 294 294 294 295 295 295 294 294 296 298 297 296 299 300 300 301 299 299 299 299 297 295 295 296 294 295 294 293 292 292 292 292 292 291 290 288 287 288 288
287 288 288 289 291 291 294 294 295 296 297 296 296 297 299 298 297 299 300 300 300 299 298 298 298 296 294 295 296 297 294 294 293 292 292 291 291 290 290 289 289 288 287 287
288 288 286 287 289 292 293 295 296 295 296 296 296 298 299 298 297 299 299 300 300 299 298 298 298 297 296 295 295 296 294 294 293 292 291 291 291 290 288 289 288 288 289 289
287 287 289 290 291 294 295 298 297 296 296 296 296 296 298 299 298 298 299 301 300 299 298 297 298 297 296 295 295 294 295 294 293 291 291 290 291 289 288 287 287 290 290 292
Wind_Speed
1 2 6 9 5 2 3 3 4 4 4 3 4 7 10 5 3 3 9 12 14 15 14 13 11 11 9 9 10 11 13 14 10 8 6 2 2 3 7 9 9 10 10 11
2 6 8 4 5 4 3 2 4 4 3 3 4 12 3 4 3 4 8 14 16 19 18 15 12 9 8 8 8 7 9 12 9 8 5 2 3 4 5 8 7 8 10 8
6 4 4 5 4 5 4 4 4 5 2 1 5 4 2 2 3 4 9 9 13 15 17 15 13 9 6 6 5 4 4 9 11 11 5 4 3 5 5 6 5 5 8 6
6 4 6 5 5 5 2 4 3 2 1 3 3 4 2 3 1 5 10 8 12 14 14 12 10 8 8 8 9 8 5 3 7 12 9 9 4 3 3 5 5 6 9 6
6 4 4 4 6 7 5 2 2 1 3 1 1 2 3 1 3 5 9 11 12 13 13 10 10 11 11 11 10 9 7 6 4 6 7 6 7 7 6 7 10 8 7 7
5 2 5 6 3 3 6 4 5 3 2 2 2 3 3 3 2 3 6 9 9 12 11 11 11 12 13 12 11 9 10 9 8 7 5 7 11 9 8 8 6 6 5 5
1 4 2 4 5 2 3 4 2 0 1 3 2 1 6 5 5 4 4 6 9 10 9 9 11 11 11 10 11 10 11 9 8 8 9 7 8 8 8 8 6 8 6 4
7 4 8 5 6 7 4 5 5 4 3 2 1 6 2 4 6 4 2 4 5 8 8 8 8 8 9 9 9 10 10 9 9 8 9 8 9 6 6 7 6 5 6 5
5 4 2 2 3 4 4 4 3 7 1 1 2 5 3 6 5 4 5 4 4 6 7 6 7 7 7 8 9 9 9 9 9 9 8 9 9 10 9 10 9 7 7 8
6 3 1 3 4 5 3 8 4 2 3 3 3 5 4 6 9 8 8 6 1 4 6 5 5 6 6 7 7 8 8 8 8 7 7 8 9 10 9 8 9 8 9 9
6 3 2 4 6 8 3 2 4 4 2 3 2 5 6 7 10 12 9 8 5 2 3 4 4 5 6 7 7 8 8 8 8 7 6 8 11 12 10 9 8 10 9 9
6 5 4 6 2 4 3 6 6 4 5 1 1 6 3 5 7 10 10 8 5 3 1 2 2 4 6 6 7 8 8 9 8 8 10 9 9 9 9 10 10 11 9 8
10 3 3 3 3 0 5 5 4 5 3 7 5 5 2 4 6 7 12 10 7 4 4 4 5 5 5 6 7 8 8 8 8 8 11 9 9 9 8 8 12 12 11 10
10 5 7 9 6 6 7 7 7 5 4 6 7 2 5 9 10 10 11 12 10 8 6 5 5 6 4 4 5 7 8 7 7 8 10 9 10 10 9 9 10 11 10 9
7 8 6 4 2 4 5 9 13 12 7 8 5 11 9 12 15 16 15 13 13 12 10 8 7 7 7 6 5 5 7 7 7 10 8 8 9 9 9 11 12 12 12 10
2 5 5 4 5 4 3 5 14 12 3 9 2 9 8 1 8 12 15 17 16 14 13 11 10 9 9 7 6 6 8 9 10 11 10 8 9 9 10 12 12 13 11 11
10 8 5 4 5 6 6 16 13 8 7 12 11 11 6 5 9 15 17 18 18 17 15 14 12 11 10 9 9 9 9 9 10 11 10 10 10 11 11 12 13 11 11 11
9 8 3 4 4 6 5 1 11 17 5 13 5 8 11 8 10 8 13 20 18 17 16 14 11 9 9 10 10 11 9 10 10 10 10 10 11 12 11 11 11 10 9 10
2 7 5 7 5 4 3 6 9 11 12 22 24 9 7 4 4 5 12 14 19 19 17 16 14 13 10 12 12 12 11 11 11 11 11 10 11 11 10 10 10 8 9 9
4 4 5 5 7 9 9 4 7 6 7 12 22 15 12 8 5 8 15 16 15 15 14 15 15 12 13 12 13 13 12 12 11 11 11 10 10 11 11 10 10 6 7 8
4 2 8 4 4 6 6 6 6 6 9 5 15 13 15 12 7 2 12 12 13 14 15 14 15 15 15 15 15 14 13 13 12 10 11 10 9 10 10 9 7 8 8 8
10 8 5 3 4 6 7 6 10 8 1 5 7 13 15 6 6 4 10 15 17 15 15 16 15 13 14 16 15 15 15 12 12 12 12 11 11 8 8 10 8 8 8 8
5 9 10 10 8 2 11 1 5 4 4 5 7 8 13 9 7 9 9 13 15 17 15 14 15 14 14 15 15 16 14 14 14 13 12 11 11 10 10 10 9 7 7 6
4 2 5 6 7 7 9 3 3 4 3 5 5 11 14 12 9 7 9 10 12 13 14 13 14 14 15 14 14 13 12 13 13 13 12 11 11 10 9 6 6 6 6 6
6 10 6 3 2 3 3 9 6 6 3 5 6 8 15 12 10 8 9 11 11 12 12 13 14 13 15 15 14 12 14 15 13 12 11 10 8 10 9 7 7 7 6 7
6 9 12 9 8 7 7 18 12 9 10 9 9 8 7 11 13 8 9 10 11 13 12 12 13 12 13 15 15 14 14 15 14 12 10 9 8 7 7 7 5 7 7 12
Wind_Direction
18 139 212 216 193 153 147 181 245 247 264 259 256 273 281 214 207 0 341 323 325 323 322 314 306 303 300 293 280 241 195 194 162 142 152 174 174 142 169 143 157 155 152 153
39 239 227 175 158 163 165 218 257 286 244 240 295 287 303 178 107 53 333 336 329 327 331 322 321 318 313 309 286 205 178 191 170 148 156 173 120 164 118 114 124 134 144 136
181 220 104 149 155 163 200 194 205 230 319 238 313 284 69 69 94 324 343 318 340 330 324 330 334 342 350 354 337 127 160 176 175 156 131 91 88 94 82 86 100 99 124 143
236 253 187 162 192 146 236 194 193 200 30 261 349 292 293 153 271 352 315 2 345 335 338 346 355 21 35 44 57 78 78 122 174 164 167 160 147 106 92 128 108 96 112 113
243 187 163 162 197 169 214 125 139 145 184 328 249 210 254 178 230 326 331 14 346 345 353 7 33 58 60 56 54 61 80 83 110 140 170 144 113 121 126 141 124 130 129 127
232 259 176 192 101 159 136 102 57 63 120 230 212 210 260 189 216 301 311 15 343 343 2 18 43 63 63 59 59 65 66 54 64 81 103 127 138 140 146 142 148 126 131 135
337 217 190 137 97 40 89 84 327 135 217 237 136 234 254 170 193 199 306 23 344 348 5 38 40 52 63 58 68 67 66 65 62 71 80 97 110 127 129 120 122 133 129 117
168 260 169 183 174 180 173 162 159 208 214 266 309 232 229 160 171 182 269 81 351 352 354 10 36 58 48 54 55 65 73 71 76 87 89 96 96 95 88 102 112 99 103 107
149 266 109 86 129 146 175 190 134 107 55 279 237 269 194 155 193 189 162 79 15 345 355 355 17 37 66 62 52 60 63 65 73 88 104 96 105 110 108 105 96 99 107 104
208 117 146 141 99 39 174 146 121 53 162 245 263 270 231 190 183 186 162 148 123 330 341 355 27 31 42 56 64 77 79 67 50 75 101 106 101 102 106 105 105 102 91 87
138 115 185 126 203 170 146 187 66 114 158 190 275 255 202 171 166 177 168 162 164 175 334 345 13 46 55 54 53 61 65 73 65 42 58 98 115 113 106 107 123 108 108 106
177 129 173 187 225 176 177 178 158 147 186 89 318 272 140 166 159 159 162 167 162 147 141 106 74 79 80 81 71 64 67 66 65 73 64 52 59 85 111 113 104 111 111 111
178 172 104 25 0 127 206 191 138 110 113 189 161 256 141 158 161 165 156 165 160 164 149 136 117 98 98 99 95 90 85 89 86 84 90 79 78 77 66 80 107 114 114 116
121 142 165 189 192 140 189 176 174 143 163 163 224 251 224 206 193 176 173 171 166 171 173 155 131 115 106 94 98 102 98 97 96 90 85 95 89 91 97 97 85 92 95 95
142 184 169 215 163 151 170 173 179 202 178 187 208 206 217 209 200 188 175 171 172 170 180 177 164 150 140 134 118 97 89 94 99 99 98 95 92 93 97 92 95 91 86 88
224 163 143 211 194 206 232 191 196 213 213 265 201 254 215 167 130 159 175 176 182 177 179 180 172 164 162 158 150 130 125 122 123 121 120 111 106 109 102 96 91 91 103 104
158 138 138 212 130 129 271 217 189 197 206 204 209 227 155 180 198 183 177 181 186 183 173 176 177 174 167 164 158 154 139 133 128 122 121 122 122 111 103 103 106 112 108 107
147 127 109 131 128 221 241 110 198 205 206 213 221 182 180 194 201 189 185 178 184 184 179 174 171 169 163 152 153 144 146 142 134 131 130 129 124 117 114 115 116 116 112 105
244 131 129 148 193 295 235 200 159 172 249 205 220 185 182 116 95 242 190 184 181 183 182 179 175 170 161 162 156 152 151 148 146 147 144 139 132 128 129 127 128 122 120 120
90 23 121 157 162 203 220 188 165 163 287 195 198 187 155 145 182 227 178 177 170 173 171 166 167 160 164 168 160 157 160 161 163 160 154 148 145 144 144 142 139 134 132 125
128 81 185 159 186 277 239 146 152 138 236 154 182 168 154 187 194 175 149 161 164 160 164 157 158 167 174 163 162 167 168 179 169 158 153 155 156 151 147 142 142 140 133 129
159 148 173 119 121 240 151 91 168 215 356 152 146 166 180 165 162 148 156 150 153 156 158 162 161 166 166 167 168 172 182 173 162 160 162 163 158 153 153 145 141 139 138 134
186 190 174 179 190 234 197 147 195 158 155 189 157 164 166 152 173 160 161 155 161 159 162 165 166 163 169 173 179 178 182 167 164 165 167 165 162 159 158 152 148 144 150 150
242 174 162 123 210 220 200 224 237 192 195 161 156 162 163 170 164 160 147 153 160 160 165 163 163 171 172 181 185 190 166 165 166 170 170 166 167 162 161 154 159 154 162 163
174 143 158 270 281 56 230 222 213 206 192 151 141 161 175 160 176 157 157 165 166 165 161 167 173 177 181 179 184 173 166 165 172 175 173 174 172 167 165 173 173 176 182 178
187 171 186 206 180 164 215 212 189 187 197 186 153 147 170 176 171 157 167 168 165 168 161 169 177 178 178 183 183 174 169 172 171 174 173 174 170 169 172 168 153 189 180 186